YB2SAT-13 Weather Reports


time (UTC)temp
C
wind
direction
speed
KPH
gust
KPH
rain 1hr
cm
rain 24hr
cm
rain mn
cm
humidity
%
barometer
mb
20260509210004 28 170 4.8 4.8 0.00 0.00 0.00 91 1008.0
20260509204504 28 170 4.8 4.8 0.00 0.00 0.00 91 1009.0
20260509203004 28 170 4.8 4.8 0.00 0.00 0.00 90 1009.0
20260509201504 28 190 6.4 4.8 0.00 0.00 0.00 91 1009.0
20260509200004 28 190 6.4 4.8 0.00 0.00 0.00 91 1009.0
20260509194504 28 190 6.4 4.8 0.00 0.00 0.00 91 1009.0
20260509193003 28 190 6.4 4.8 0.00 0.00 0.00 92 1009.0
20260509191504 28 188 4.8 4.8 0.00 0.00 0.00 93 1009.0
20260509190004 28 188 4.8 4.8 0.00 0.00 0.00 92 1009.0
20260509184503 28 188 4.8 4.8 0.00 0.00 0.00 90 1009.0
20260509183003 28 188 4.8 4.8 0.00 0.00 0.00 90 1009.0
20260509181504 27 176 4.8 4.8 0.00 0.00 0.00 91 1010.0
20260509180004 27 176 4.8 4.8 0.00 0.00 0.00 91 1010.0
20260509174504 27 176 4.8 4.8 0.00 0.00 0.00 91 1010.0
20260509173004 27 180 6.4 6.4 0.00 0.00 0.00 90 1010.0
20260509171504 28 179 6.4 6.4 0.00 0.00 0.00 93 1010.0
20260509170004 28 179 6.4 6.4 0.00 0.00 0.00 91 1010.0
20260509164504 28 179 6.4 6.4 0.00 0.00 0.00 92 1010.0
20260509163003 28 179 6.4 6.4 0.00 0.00 0.00 92 1010.0
20260509161503 28 192 4.8 4.8 0.00 0.00 0.00 94 1010.0
20260509160003 28 192 4.8 4.8 0.00 0.00 0.00 92 1011.0
20260509154504 28 192 4.8 4.8 0.00 0.00 0.00 93 1010.0
20260509153004 28 192 4.8 4.8 0.00 0.00 0.00 93 1011.0
20260509151504 28 216 4.8 4.8 0.00 0.00 0.00 96 1010.0
20260509150004 28 216 4.8 4.8 0.00 0.00 0.00 93 1011.0
20260509144504 28 216 4.8 4.8 0.00 0.00 0.00 94 1010.0
20260509143004 28 216 4.8 4.8 0.00 0.00 0.00 93 1011.0
20260509141503 28 219 4.8 4.8 0.00 0.00 0.00 95 1010.0
20260509140004 28 219 4.8 4.8 0.00 0.00 0.00 90 1011.0
20260509134503 28 219 4.8 4.8 0.00 0.00 0.00 90 1010.0
20260509133004 28 219 4.8 4.8 0.00 0.00 0.00 90 1010.0
20260509131503 29 232 6.4 6.4 0.00 0.00 0.00 89 1010.0
20260509130003 29 232 6.4 6.4 0.00 0.00 0.00 90 1010.0
20260509124504 28 232 6.4 6.4 0.00 0.00 0.00 85 1010.0
20260509123016 28 310 16.1 0.0 0.00 0.00 0.00 88 1010.0
20260509121514 28 310 16.1 0.0 0.00 0.00 0.00 88 1009.0
20260509120021 30 310 16.1 0.0 0.00 0.00 0.00 89 1009.0
20260509114514 30 310 16.1 0.0 0.00 0.00 0.00 89 1009.0
20260509113022 30 310 14.5 0.0 0.00 0.00 0.00 79 1009.0
20260509111514 30 310 14.5 0.0 0.00 0.00 0.00 79 1009.0
20260509110028 30 300 9.7 0.0 0.00 0.00 0.00 79 1009.0
20260509104515 30 300 9.7 0.0 0.00 0.00 0.00 79 1009.0
20260509103020 30 310 11.3 0.0 0.00 0.00 0.00 74 1009.0
20260509101516 30 310 11.3 0.0 0.00 0.00 0.00 74 1008.0
20260509100031 30 330 16.1 0.0 0.00 0.00 0.00 74 1008.0
20260509094516 30 330 16.1 0.0 0.00 0.00 0.00 74 1008.0
20260509093021 31 320 16.1 0.0 0.00 0.00 0.00 74 1008.0
20260509091515 31 320 16.1 0.0 0.00 0.00 0.00 74 1007.0
20260509090024 31 320 14.5 0.0 0.00 0.00 0.00 74 1007.0
20260509084517 31 320 14.5 0.0 0.00 0.00 0.00 74 1007.0
20260509083020 31 320 20.9 0.0 0.00 0.00 0.00 70 1007.0
20260509081518 32 310 20.9 0.0 0.00 0.00 0.00 70 1007.0
20260509080022 32 310 20.9 0.0 0.00 0.00 0.00 70 1007.0
20260509074517 31 310 20.9 0.0 0.00 0.00 0.00 70 1007.0
20260509073021 32 330 17.7 0.0 0.00 0.00 0.00 66 1007.0
20260509071516 33 330 17.7 0.0 0.00 0.00 0.00 62 1007.0
20260509070018 32 350 14.5 0.0 0.00 0.00 0.00 62 1007.0
20260509064518 33 350 14.5 0.0 0.00 0.00 0.00 62 1007.0
20260509063023 33 350 14.5 0.0 0.00 0.00 0.00 62 1008.0
20260509061519 32 350 14.5 0.0 0.00 0.00 0.00 62 1008.0
20260509060020 33 350 17.7 0.0 0.00 0.00 0.00 62 1008.0
20260509054519 33 350 17.7 0.0 0.00 0.00 0.00 62 1008.0
20260509053024 32 20 9.7 0.0 0.00 0.00 0.00 62 1008.0
20260509051516 33 54 8.0 6.4 0.00 0.00 0.00 64 1009.0
20260509050019 33 90 11.3 0.0 0.00 0.00 0.00 63 1009.0
20260509044515 33 90 11.3 0.0 0.00 0.00 0.00 63 1009.0
20260509043017 32 90 11.3 0.0 0.00 0.00 0.00 62 1009.0
20260509041515 32 90 11.3 0.0 0.00 0.00 0.00 62 1010.0
20260509040023 31 90 11.3 0.0 0.00 0.00 0.00 62 1010.0
20260509034513 33 100 16.1 0.0 0.00 0.00 0.00 66 1010.0
20260509033017 32 100 16.1 0.0 0.00 0.00 0.00 66 1010.0
20260509031515 32 100 16.1 0.0 0.00 0.00 0.00 66 1011.0
20260509030021 31 100 16.1 0.0 0.00 0.00 0.00 66 1011.0
20260509024513 31 100 16.1 0.0 0.00 0.00 0.00 66 1011.0
20260509023016 30 90 14.5 0.0 0.00 0.00 0.00 66 1011.0
20260509021512 31 120 14.5 0.0 0.00 0.00 0.00 70 1011.0
20260509020017 31 120 14.5 0.0 0.00 0.00 0.00 70 1011.0
20260509014513 30 120 14.5 0.0 0.00 0.00 0.00 70 1011.0
20260509013014 30 110 11.3 0.0 0.00 0.00 0.00 70 1011.0
20260509011512 30 110 11.3 0.0 0.00 0.00 0.00 93 1011.0
20260509010016 29 100 8.0 0.0 0.00 0.00 0.00 93 1011.0
20260509004512 28 100 8.0 0.0 0.00 0.00 0.00 94 1011.0
20260509003013 28 100 8.0 0.0 0.00 0.00 0.00 94 1011.0
20260509001511 27 100 8.0 0.0 0.00 0.00 0.00 94 1010.0
20260509000015 27 100 8.0 0.0 0.00 0.00 0.00 94 1010.0
20260508234512 26 100 8.0 0.0 0.00 0.00 0.00 94 1010.0
20260508233012 26 110 4.8 0.0 0.00 0.00 0.00 94 1010.0
20260508231507 25 110 4.8 0.0 0.00 0.00 0.00 94 1009.0
20260508230007 26 0 0.0 0.0 0.00 0.00 0.00 89 1009.0
20260508224507 26 0 0.0 0.0 0.00 0.00 0.00 89 1009.0
20260508223007 26 0 0.0 0.0 0.00 0.00 0.00 89 1009.0
20260508221508 26 0 1.6 0.0 0.00 0.00 0.00 94 1009.0
20260508220008 26 0 1.6 0.0 0.00 0.00 0.00 94 1009.0
20260508214508 26 0 1.6 0.0 0.00 0.00 0.00 94 1009.0
20260508213008 26 160 4.8 0.0 0.00 0.00 0.00 94 1009.0
20260508211507 26 160 4.8 0.0 0.00 0.00 0.00 94 1009.0